N5JNG Weather Reports


time (UTC)temp
C
wind
direction
speed
KPH
gust
KPH
rain 1hr
cm
rain 24hr
cm
rain mn
cm
humidity
%
barometer
mb
20260510105355 24 147 0.0 1.6 0.00 0.20 0.00 100 1009.2
20260510104855 24 147 0.0 0.0 0.00 0.23 0.00 100 1009.2
20260510104355 24 147 0.0 0.0 0.00 0.23 0.00 100 1009.2
20260510103854 24 147 0.0 0.0 0.00 0.23 0.00 100 1009.1
20260510103354 25 147 0.0 0.0 0.00 0.23 0.00 100 1009.1
20260510102854 25 144 0.0 0.0 0.00 0.23 0.00 100 1009.1
20260510102354 25 143 0.0 0.0 0.00 0.23 0.00 100 1009.0
20260510101855 25 142 0.0 0.0 0.00 0.23 0.00 100 1009.0
20260510101355 25 142 0.0 0.0 0.00 0.23 0.00 100 1008.9
20260510100855 25 141 0.0 0.0 0.00 0.23 0.00 100 1009.1
20260510095854 25 140 0.0 0.0 0.00 0.23 0.00 100 1009.1
20260510094353 25 140 0.0 0.0 0.00 0.23 0.00 100 1009.2
20260510093853 25 140 0.0 0.0 0.00 0.23 0.00 100 1009.1
20260510093353 24 140 0.0 0.0 0.00 0.23 0.00 100 1009.1
20260510092352 24 140 0.0 0.0 0.00 0.23 0.00 100 1009.1
20260510091852 24 140 0.0 0.0 0.00 0.23 0.00 100 1009.3
20260510091353 24 140 0.0 0.0 0.00 0.23 0.00 100 1009.2
20260510090854 24 140 0.0 0.0 0.00 0.23 0.00 100 1009.1
20260510090353 25 140 0.0 0.0 0.00 0.23 0.00 100 1009.2
20260510085852 25 140 0.0 0.0 0.00 0.23 0.00 100 1009.3
20260510085350 25 140 0.0 0.0 0.00 0.23 0.00 100 1009.2
20260510084850 25 141 0.0 0.0 0.00 0.23 0.00 100 1009.1
20260510083851 25 142 0.0 0.0 0.00 0.23 0.00 100 1009.0
20260510083351 25 142 0.0 3.2 0.00 0.23 0.00 100 1008.9
20260510082850 25 143 3.2 9.7 0.00 0.23 0.00 100 1009.0
20260510082348 25 140 4.8 9.7 0.00 0.23 0.00 100 1009.1
20260510081848 25 134 3.2 9.7 0.00 0.23 0.00 100 1009.2
20260510080849 25 138 6.4 11.3 0.00 0.23 0.00 100 1009.3
20260510075847 25 128 8.0 11.3 0.00 0.23 0.00 100 1009.3
20260510075346 25 114 8.0 11.3 0.00 0.23 0.00 100 1009.3
20260510074847 25 117 8.0 11.3 0.00 0.23 0.00 100 1009.4
20260510074347 25 121 8.0 9.7 0.00 0.23 0.00 100 1009.3
20260510073847 25 117 8.0 9.7 0.00 0.23 0.00 100 1009.3
20260510072847 25 101 4.8 9.7 0.00 0.23 0.00 100 1009.3
20260510072347 25 101 4.8 9.7 0.00 0.23 0.00 100 1009.3
20260510071846 25 100 6.4 9.7 0.00 0.23 0.00 100 1009.4
20260510070845 25 103 8.0 11.3 0.00 0.23 0.00 100 1009.4
20260510070345 25 111 8.0 11.3 0.00 0.23 0.00 100 1009.4
20260510065844 25 111 8.0 11.3 0.00 0.23 0.00 100 1009.5
20260510064845 25 101 8.0 11.3 0.00 0.23 0.00 100 1009.6
20260510064345 25 95 8.0 12.9 0.00 0.23 0.00 100 1009.5
20260510063845 25 80 8.0 12.9 0.00 0.23 0.00 100 1009.6
20260510063346 25 96 9.7 12.9 0.00 0.23 0.00 100 1009.6
20260510062342 25 101 8.0 12.9 0.00 0.23 0.00 100 1009.8
20260510061843 25 111 9.7 12.9 0.00 0.23 0.00 100 1009.7
20260510061343 25 103 9.7 12.9 0.00 0.23 0.00 100 1009.8
20260510060843 25 100 9.7 11.3 0.00 0.23 0.00 100 1009.9
20260510060343 25 108 8.0 11.3 0.00 0.23 0.00 100 1009.8
20260510055343 25 124 8.0 12.9 0.00 0.23 0.00 100 1009.7
20260510054843 25 133 8.0 12.9 0.00 0.23 0.00 100 1009.7
20260510054343 25 115 8.0 11.3 0.00 0.23 0.00 100 1009.7
20260510053341 25 114 6.4 8.0 0.00 0.23 0.00 100 1009.7
20260510052841 25 114 8.0 11.3 0.00 0.23 0.00 100 1009.6
20260510052341 25 117 8.0 11.3 0.00 0.23 0.00 100 1009.6
20260510051841 25 115 8.0 9.7 0.00 0.23 0.00 100 1009.4
20260510051341 25 111 8.0 11.3 0.00 0.23 0.00 100 1009.4
20260510050341 25 113 9.7 12.9 0.00 0.23 0.00 100 1009.4
20260510044340 26 144 8.0 11.3 0.00 0.23 0.23 100 1008.9
20260510043839 26 146 8.0 14.5 0.00 0.23 0.23 100 1008.9
20260510043339 26 140 8.0 14.5 0.00 0.23 0.23 100 1008.9
20260510042839 26 149 8.0 12.9 0.00 0.23 0.23 100 1008.9
20260510041840 26 125 9.7 12.9 0.00 0.23 0.23 100 1009.1
20260510040340 26 119 9.7 12.9 0.00 0.23 0.23 100 1009.2
20260510035840 26 121 9.7 12.9 0.00 0.23 0.23 100 1009.3
20260510035337 26 117 9.7 12.9 0.00 0.23 0.23 100 1009.1
20260510034837 26 110 9.7 11.3 0.00 0.23 0.23 100 1009.2
20260510034337 26 105 9.7 12.9 0.00 0.23 0.23 100 1009.2
20260510033837 26 116 9.7 12.9 0.00 0.23 0.23 100 1009.2
20260510033337 26 121 9.7 14.5 0.00 0.23 0.23 100 1009.0
20260510032837 26 109 8.0 14.5 0.00 0.23 0.23 100 1009.0
20260510032337 26 90 9.7 12.9 0.00 0.23 0.23 100 1009.0
20260510031837 26 106 9.7 12.9 0.00 0.23 0.23 100 1008.8
20260510030837 26 108 9.7 12.9 0.00 0.23 0.23 100 1008.7
20260510030337 26 120 9.7 14.5 0.00 0.23 0.23 100 1008.5
20260510025837 26 127 9.7 17.7 0.00 0.23 0.23 100 1008.3
20260510025338 26 148 9.7 17.7 0.00 0.23 0.23 100 1008.1
20260510024837 26 122 9.7 16.1 0.00 0.23 0.23 100 1007.9
20260510024337 26 138 11.3 17.7 0.00 0.23 0.23 100 1007.7
20260510023837 26 142 12.9 19.3 0.00 0.23 0.23 100 1007.5
20260510023336 26 165 11.3 19.3 0.00 0.23 0.23 100 1007.4
20260510022835 26 140 9.7 17.7 0.00 0.23 0.23 100 1007.3
20260510022331 26 144 9.7 16.1 0.00 0.23 0.23 100 1007.3
20260510021831 26 140 9.7 16.1 0.00 0.23 0.23 100 1007.4
20260510021332 26 184 9.7 14.5 0.00 0.23 0.23 100 1007.5
20260510020831 26 147 8.0 12.9 0.00 0.23 0.23 100 1007.6
20260510020332 26 145 8.0 12.9 0.00 0.23 0.23 100 1007.6
20260510015332 26 150 8.0 12.9 0.00 0.23 0.23 100 1007.6
20260510014331 27 147 8.0 12.9 0.00 0.23 0.23 100 1007.4
20260510013831 27 132 8.0 11.3 0.00 0.23 0.23 100 1007.4
20260510012831 27 122 6.4 9.7 0.00 0.23 0.23 100 1007.5
20260510012332 27 121 6.4 9.7 0.00 0.23 0.23 100 1007.5
20260510011831 28 120 4.8 8.0 0.00 0.23 0.23 100 1007.6
20260510011332 28 134 3.2 8.0 0.00 0.23 0.23 100 1007.5
20260510010831 28 134 4.8 9.7 0.00 0.23 0.23 100 1007.6
20260510010331 28 134 6.4 9.7 0.00 0.23 0.23 100 1007.5
20260510005831 28 132 8.0 12.9 0.00 0.23 0.23 100 1007.5
20260510004831 28 119 9.7 17.7 0.00 0.23 0.23 100 1007.3
20260510003832 29 127 11.3 16.1 0.00 0.23 0.23 100 1007.3
20260510003332 29 128 11.3 17.7 0.00 0.23 0.23 100 1007.1
20260510002831 29 138 11.3 20.9 0.00 0.23 0.23 100 1007.1
20260510002331 29 137 12.9 20.9 0.00 0.23 0.23 100 1007.0
20260510001832 29 119 11.3 19.3 0.00 0.23 0.23 100 1006.9
20260510001332 30 144 12.9 20.9 0.00 0.23 0.23 100 1007.0
20260510000329 30 119 14.5 22.5 0.00 0.23 0.23 100 1006.9
20260509233827 30 130 14.5 24.1 0.00 0.23 0.23 100 1007.0
20260509233326 30 116 16.1 22.5 0.00 0.23 0.23 100 1007.0
20260509232826 30 140 16.1 24.1 0.00 0.23 0.23 100 1007.0
20260509232325 30 125 16.1 24.1 0.00 0.23 0.23 100 1007.0
20260509231825 30 121 16.1 24.1 0.00 0.23 0.23 100 1007.1
20260509231326 30 114 16.1 24.1 0.00 0.23 0.23 100 1007.2
20260509230826 30 153 16.1 24.1 0.00 0.23 0.23 100 1007.1
20260509230325 30 126 16.1 22.5 0.00 0.23 0.23 100 1007.0
20260509225825 30 123 17.7 25.7 0.00 0.23 0.23 100 1007.2
20260509225326 31 117 19.3 30.6 0.00 0.23 0.23 100 1007.2
20260509224826 31 129 19.3 30.6 0.00 0.23 0.23 100 1007.0
20260509223824 31 119 16.1 22.5 0.00 0.23 0.23 100 1006.9
20260509223324 31 120 16.1 22.5 0.00 0.23 0.23 100 1007.0
20260509222824 31 115 16.1 22.5 0.00 0.23 0.23 100 1007.0
20260509222324 31 127 16.1 22.5 0.00 0.23 0.23 100 1006.9
20260509221823 32 121 14.5 20.9 0.00 0.23 0.23 100 1006.9
20260509221323 31 126 12.9 19.3 0.00 0.23 0.23 100 1007.0
20260509220824 32 119 12.9 19.3 0.00 0.23 0.23 100 1007.0
20260509220325 31 115 12.9 19.3 0.00 0.23 0.23 100 1006.9
20260509215824 31 145 14.5 22.5 0.00 0.23 0.23 100 1006.9
20260509215324 31 106 16.1 22.5 0.00 0.23 0.23 100 1007.2
20260509214823 31 125 14.5 20.9 0.00 0.23 0.23 100 1007.0
20260509214323 32 119 14.5 20.9 0.00 0.23 0.23 100 1007.0
20260509213824 32 101 12.9 20.9 0.00 0.23 0.23 100 1007.1
20260509212823 32 100 8.0 16.1 0.00 0.23 0.23 100 1007.0
20260509212323 32 115 11.3 16.1 0.00 0.23 0.23 100 1007.1
20260509211824 32 122 11.3 16.1 0.00 0.23 0.23 100 1007.1
20260509211324 32 110 11.3 17.7 0.00 0.23 0.23 100 1007.1
20260509210824 32 110 12.9 19.3 0.00 0.23 0.23 100 1007.1
20260509210323 32 112 14.5 22.5 0.00 0.23 0.23 100 1007.0
20260509205824 32 126 12.9 22.5 0.00 0.23 0.23 100 1006.9
20260509205322 32 132 9.7 17.7 0.00 0.23 0.23 100 1006.9
20260509204822 32 101 9.7 19.3 0.00 0.23 0.23 100 1007.0
20260509204321 32 121 8.0 19.3 0.00 0.23 0.23 100 1006.9
20260509203820 32 75 8.0 12.9 0.00 0.23 0.23 100 1007.0
20260509203320 32 215 6.4 22.5 0.00 0.23 0.23 100 1007.0
20260509202820 32 124 3.2 22.5 0.00 0.23 0.23 100 1007.1
20260509201817 32 141 3.2 9.7 0.00 0.23 0.23 100 1007.4
20260509201318 32 67 6.4 16.1 0.00 0.23 0.23 100 1007.3
20260509195819 32 73 6.4 14.5 0.00 0.23 0.23 100 1007.4
20260509194818 32 343 8.0 14.5 0.00 0.23 0.23 100 1007.5
20260509194318 31 13 8.0 14.5 0.00 0.23 0.23 100 1007.5
20260509192316 31 292 8.0 16.1 0.00 0.23 0.23 100 1007.6
20260509191816 31 296 6.4 14.5 0.00 0.23 0.23 100 1007.7
20260509190816 31 11 11.3 17.7 0.00 0.23 0.23 100 1007.9
20260509190316 31 338 11.3 19.3 0.00 0.23 0.23 100 1007.8
20260509185816 31 304 8.0 19.3 0.00 0.23 0.23 100 1007.7
20260509185315 31 355 8.0 14.5 0.00 0.23 0.23 100 1007.8
20260509184815 31 319 9.7 17.7 0.00 0.23 0.23 100 1007.8
20260509184314 30 292 9.7 17.7 0.00 0.23 0.23 100 1007.8
20260509183814 30 277 11.3 16.1 0.00 0.23 0.23 100 1007.9
20260509183314 31 265 12.9 20.9 0.00 0.23 0.23 100 1007.9
20260509182314 31 313 9.7 19.3 0.00 0.23 0.23 100 1008.1
20260509181814 31 271 8.0 19.3 0.00 0.23 0.23 100 1008.1
20260509181313 31 325 8.0 16.1 0.00 0.23 0.23 100 1008.1
20260509180814 31 320 8.0 16.1 0.00 0.23 0.23 100 1008.1
20260509180314 31 321 6.4 14.5 0.00 0.23 0.23 100 1008.2
20260509175814 31 330 3.2 14.5 0.00 0.23 0.23 100 1008.2
20260509175312 30 346 3.2 9.7 0.00 0.23 0.23 100 1008.3
20260509173813 30 169 3.2 6.4 0.00 0.23 0.23 100 1008.4
20260509173312 29 144 1.6 6.4 0.00 0.23 0.23 100 1008.5
20260509172812 29 153 1.6 6.4 0.00 0.23 0.23 100 1008.4
20260509172312 28 153 4.8 11.3 0.00 0.23 0.23 100 1008.4
20260509171812 28 149 6.4 11.3 0.00 0.23 0.23 100 1008.3
20260509171312 28 126 8.0 14.5 0.00 0.23 0.23 100 1008.3
20260509170812 28 121 6.4 14.5 0.00 0.23 0.23 100 1008.2
20260509170310 28 149 4.8 9.7 0.00 0.23 0.23 100 1008.4
20260509165810 27 88 6.4 12.9 0.00 0.23 0.23 100 1008.4
20260509165310 27 117 6.4 12.9 0.00 0.23 0.23 100 1008.4
20260509164310 27 179 4.8 9.7 0.00 0.23 0.23 100 1008.4
20260509163810 26 158 4.8 9.7 0.00 0.23 0.23 100 1008.4
20260509163310 26 123 4.8 11.3 0.00 0.23 0.23 100 1008.4
20260509162810 26 126 3.2 11.3 0.00 0.23 0.23 100 1008.3
20260509162310 26 142 1.6 8.0 0.00 0.23 0.23 100 1008.3
20260509161810 26 140 0.0 8.0 0.00 0.23 0.23 100 1008.4
20260509161307 25 109 0.0 6.4 0.00 0.23 0.23 100 1008.4
20260509160808 25 109 0.0 6.4 0.00 0.23 0.23 100 1008.3
20260509160308 25 328 1.6 8.0 0.00 0.23 0.23 100 1008.4
20260509155808 25 329 1.6 8.0 0.00 0.23 0.23 100 1008.4
20260509155308 25 330 3.2 8.0 0.00 0.23 0.23 100 1008.5
20260509154808 25 330 4.8 9.7 0.00 0.23 0.23 100 1008.4
20260509154308 25 331 6.4 11.3 0.00 0.23 0.23 100 1008.4
20260509153810 25 339 8.0 12.9 0.00 0.23 0.23 100 1008.1
20260509153309 25 329 9.7 14.5 0.00 0.23 0.23 100 1008.2
20260509152809 25 5 9.7 14.5 0.00 0.23 0.23 100 1008.4
20260509152308 25 28 8.0 11.3 0.00 0.23 0.23 100 1008.5
20260509151806 25 19 8.0 11.3 0.00 0.23 0.23 100 1008.5
20260509151306 24 22 6.4 11.3 0.00 0.23 0.23 100 1008.6
20260509150806 24 5 8.0 11.3 0.00 0.23 0.23 100 1008.6
20260509150306 24 5 8.0 11.3 0.00 0.23 0.23 100 1008.5
20260509145806 24 19 3.2 9.7 0.00 0.23 0.23 100 1008.5
20260509145306 24 334 4.8 16.1 0.00 0.23 0.23 100 1008.6
20260509144806 23 332 8.0 16.1 0.00 0.23 0.23 100 1008.5
20260509144306 23 304 4.8 12.9 0.00 0.23 0.23 100 1008.6
20260509143304 23 297 9.7 20.9 0.00 0.23 0.23 100 1008.6
20260509142307 23 306 9.7 17.7 0.00 0.23 0.23 100 1008.6
20260509141804 23 256 9.7 17.7 0.00 0.23 0.23 100 1008.6
20260509141304 23 190 8.0 17.7 0.00 0.23 0.23 100 1008.5
20260509140805 23 144 9.7 17.7 0.00 0.23 0.23 100 1007.5
20260509140304 23 162 11.3 19.3 0.00 0.23 0.23 100 1007.4
20260509135804 23 179 11.3 19.3 0.00 0.23 0.23 100 1007.6
20260509135306 23 170 11.3 20.9 0.00 0.23 0.23 100 1007.6
20260509134804 23 133 12.9 22.5 0.00 0.23 0.23 100 1007.4
20260509133802 24 167 14.5 33.8 0.00 0.23 0.23 100 1007.5
20260509132802 24 136 20.9 38.6 0.03 0.23 0.23 100 1007.2
20260509132306 25 163 20.9 38.6 0.03 0.23 0.23 100 1007.0
20260509131802 25 129 20.9 37.0 0.03 0.23 0.23 100 1006.7
20260509131302 25 136 22.5 37.0 0.03 0.23 0.23 100 1006.5
20260509130802 25 164 25.7 38.6 0.05 0.23 0.23 100 1006.4
20260509130302 25 130 22.5 38.6 0.05 0.23 0.23 100 1006.0
20260509125802 25 95 14.5 30.6 0.05 0.23 0.23 100 1006.8
20260509125300 25 140 12.9 22.5 0.05 0.23 0.23 100 1008.2
20260509124800 25 146 14.5 22.5 0.08 0.23 0.23 100 1008.3
20260509124300 25 136 16.1 24.1 0.08 0.23 0.23 100 1008.1
20260509123800 25 123 14.5 24.1 0.10 0.23 0.23 100 1008.1
20260509123302 25 120 11.3 17.7 0.10 0.23 0.23 100 1008.2
20260509122800 25 114 11.3 16.1 0.10 0.20 0.20 100 1008.5
20260509122258 25 121 11.3 17.7 0.13 0.20 0.20 100 1008.9
20260509121256 25 177 12.9 19.3 0.15 0.20 0.20 100 1009.7
20260509120756 25 210 14.5 20.9 0.13 0.18 0.18 100 1010.1
20260509120257 25 204 14.5 20.9 0.13 0.18 0.18 100 1010.1
20260509115756 25 190 12.9 19.3 0.15 0.18 0.18 100 1010.1
20260509115256 25 202 12.9 17.7 0.15 0.18 0.18 100 1010.1
20260509114756 25 205 11.3 16.1 0.15 0.15 0.15 100 1010.1
20260509114256 25 196 11.3 16.1 0.15 0.15 0.15 100 1010.1
20260509113756 25 190 9.7 12.9 0.13 0.13 0.13 100 1010.2
20260509113257 25 198 8.0 12.9 0.13 0.13 0.13 100 1010.1
20260509112756 25 192 8.0 12.9 0.10 0.10 0.10 100 1010.1
20260509112255 25 194 9.7 14.5 0.08 0.08 0.10 100 1010.2
20260509111255 25 196 9.7 12.9 0.05 0.05 0.05 100 1010.1
20260509110754 25 202 9.7 14.5 0.05 0.05 0.05 100 1010.0
20260509110254 25 254 11.3 14.5 0.05 0.05 0.05 100 1010.0
20260509105754 25 261 11.3 14.5 0.03 0.03 0.03 100 1010.0